Regional Weather Roundup
Issued by NWS Cleveland, OH

Home | Current Version | Previous Version | Graphics & Text | Print | Product List | Glossary On
Versions: 1 2 3 4 5 6 7 8 9 10 11 12 13 14 15 16 17 18 19 20 21 22 23 24 25 26 27 28 29 30 31 32 33 34 35 36 37 38 39 40 41 42 43 44 45 46 47 48 49 50
000
ASUS41 KCLE 260502
RWRCLE
OHIO REGIONAL WEATHER ROUNDUP
NATIONAL WEATHER SERVICE CLEVELAND, OH
100 AM EDT SAT JUL 26 2014

NOTE: "FAIR" INDICATES FEW OR NO CLOUDS BELOW 12,000 FEET WITH NO
SIGNIFICANT WEATHER AND/OR OBSTRUCTIONS TO VISIBILITY.

OHZ001>008-015>018-024>027-034-035-043-044-260600-
   NORTHWEST OHIO

CITY           SKY/WX    TMP DP  RH WIND       PRES   REMARKS
DEFIANCE       CLEAR     64  56  75 CALM      29.99S
FINDLAY        CLOUDY    65  57  75 S7        29.99S
TOLEDO EXPRESS PTCLDY    63  57  81 CALM      29.99S
TOLEDO EXEC    PTCLDY    65  57  75 S3        29.99F
LIMA           CLOUDY    68  59  73 S5        30.01S
$$

OHZ009>014-019>023-028>033-038-089-260600-
   NORTHEAST OHIO

CITY           SKY/WX    TMP DP  RH WIND       PRES   REMARKS
CLE-HOPKINS    LGT RAIN  64  59  83 CALM      30.03R
CLE-LAKEFRONT  CLOUDY    66  59  78 SE6       30.00R
CUY CO. ARPT   NOT AVBL
LORAIN-ELYRIA  LGT RAIN  66  61  84 CALM      30.01R
ASHTABULA      CLOUDY    62  56  80 S3        30.02R
AKRON-CANTON   CLOUDY    68  59  73 S5        30.01F
WOOSTER        CLOUDY    66  63  90 CALM      30.02S
MANSFIELD      CLOUDY    65  59  81 SW5       30.02S
YOUNGSTOWN     LGT RAIN  61  59  93 CALM      30.02S FOG
$$

OHZ042-051>053-060>062-070>072-077>081-260600-
  SOUTHWEST OHIO

CITY           SKY/WX    TMP DP  RH WIND       PRES   REMARKS
CINC-COVINGTON MOCLDY    66  60  81 CALM      30.02S
CINC-LUNKEN    MOCLDY    65  62  90 CALM      30.03R
HAMILTON       CLOUDY    67  64  90 CALM      30.03R
DAYTON         CLOUDY    70  59  68 CALM      30.03S
WRIGHT-PAT AFB CLOUDY    69  59  71 CALM      30.02S
DAYTON GENERAL CLOUDY    69  61  75 CALM      30.02R
WILMINGTON     CLOUDY    66  62  87 CALM      30.03R
$$

OHZ036-037-039>041-045>050-054>059-063>069-073>076-082>088-260600-
  CENTRAL AND SOUTHEAST OHIO

CITY           SKY/WX    TMP DP  RH WIND       PRES   REMARKS
COLUMBUS       CLOUDY    73  58  59 CALM      30.01S
OSU AIRPORT    CLOUDY    69  59  70 CALM      30.02S
BOLTON FIELD   CLOUDY    66  64  93 SW3       30.02F
RICKENBACK AFB CLOUDY    69  59  72 CALM      30.01S
NEWARK         CLOUDY    65  62  90 CALM      30.02R
MARION         CLOUDY    67  60  78 CALM      30.01F
LANCASTER      MOCLDY    66  62  87 CALM      30.02S
ZANESVILLE     CLOUDY    67  61  81 S3        30.02S
NEW PHILLY     CLOUDY    64  61  90 S3        30.02S
$$



USA.gov is the U.S. government's official web portal to all federal, state and local government web resources and services.